User: anonymous   Login
Location: Unspecified
(0.0000°N, 0.0000°E)
Time: 06:15:03
(UTC+00:00)
Language:

Landsat 3 - Orbit

View from above orbital plane
View from above orbital plane
View from above satellite
View from above satellite

Ground track
Ground track

The orbit data is extracted from the following two-line orbital elements,

1 10702U 78026A   18199.91175786  .00000231  00000-0  19633-3 0  9996
2 10702  98.7549 214.7538 0014311 193.4273 227.3656 13.96666435 58275
Epoch (UTC): 18 July 2018 21:52:55
Eccentricity: 0.0014311
inclination: 98.7549°
perigee height: 895 km
apogee height: 916 km
right ascension of ascending node: 214.7538°
argument of perigee: 193.4273°
revolutions per day: 13.96666435
mean anomaly at epoch: 227.3656°
orbit number at epoch: 5827

The dashed part of the orbit path shows where the satellite is in the earth's shadow,  

DLR